Flag for Comoros Weather past 2 weeks in Mutsamudu, Comoros

Now
81 °F

Passing clouds.


Feels Like: 85 °F
Forecast: 78 / 81 °F
Wind: 17 mph from South

Location: Dzaoudzi / Pamanzi Mayotte

Current Time: May 23, 2015 at 6:37:28 AM

Latest Report: May 23, 2015 at 6:00 AM


Visibility: N/A

Pressure: 29.98 "Hg

Humidity: 74%

Dew point: 72 °F

Location of MutsamuduLocation

Historic Weather in Mutsamudu — Graph

°F

Mutsamudu temperature yesterday

Maximum temperature yesterday: 86 °F (at 9:00 AM)
Minimum temperature yesterday: 81 °F (at 12:00 AM)
Average temperature yesterday: 83 °F

Past Weeks' High & Low Weather Summary

 TemperatureHumidityPressure
High90 °F (May 10, 1:00 PM)89% (May 12, 1:30 PM)30.04 "Hg (May 12, 1:30 PM)
Low75 °F (May 16, 3:00 AM)52% (May 21, 11:00 AM)29.86 "Hg (May 13, 3:30 PM)
Average83 °F70%29.95 "Hg
* Reported May 8 5:00 AM — May 23 5:30 AM, Mutsamudu, Weather by CustomWeather, © 2015

Note: Actual official high and low records may vary slightly from our data, if they occured in-between our weather recording intervals... More about our weather records

Advertising

Mutsamudu weather history for previous 24 hours

 ConditionsComfort  
Time TempWeatherWind HumidityBarometerVisibility
5:30 AM
Sat, May 23
81 °FMostly cloudy.17 mph74%29.98 "HgN/A
5:00 AM79 °FPartly cloudy.17 mph84%29.98 "HgN/A
4:30 AM77 °FLight rain. Partly cloudy.6 mph79%29.98 "HgN/A
4:00 AM81 °FPartly cloudy.18 mph70%29.98 "HgN/A
3:30 AM81 °FPassing clouds.15 mph70%29.98 "HgN/A
3:00 AM81 °FPassing clouds.13 mph70%29.98 "HgN/A
2:30 AM81 °FPassing clouds.14 mph74%29.98 "HgN/A
2:01 AM81 °FWarm.12 mph70%29.98 "HgN/A
1:30 AM81 °FPassing clouds.10 mph70%29.98 "HgN/A
1:00 AM81 °FWarm.9 mph70%30.01 "HgN/A
12:30 AM81 °FWarm.8 mph66%30.01 "HgN/A
12:00 AM81 °FWarm.8 mph70%30.01 "HgN/A
11:30 PM
Fri, May 22
81 °FWarm.7 mph66%30.04 "HgN/A
11:00 PM81 °FWarm.7 mph66%30.04 "HgN/A
10:30 PM81 °FWarm.8 mph66%30.04 "HgN/A
10:00 PM82 °FPassing clouds.9 mph62%30.04 "HgN/A
9:30 PM82 °FPassing clouds.9 mph66%30.04 "HgN/A
9:00 PM82 °FPassing clouds.12 mph62%30.04 "HgN/A
8:30 PM81 °FPassing clouds.12 mph66%30.04 "HgN/A
8:00 PM81 °FPassing clouds.9 mph66%30.01 "HgN/A
7:30 PM81 °FPassing clouds.10 mph66%30.01 "HgN/A
7:00 PM81 °FPassing clouds.9 mph66%30.01 "HgN/A
6:30 PM81 °FPassing clouds.10 mph66%29.98 "HgN/A
6:00 PM81 °FPassing clouds.10 mph66%29.98 "HgN/A
5:35 PM82 °FScattered clouds.10 mph62%29.98 "HgN/A
5:00 PM82 °FScattered clouds.12 mph66%29.98 "HgN/A
4:00 PM84 °FScattered clouds.10 mph62%29.98 "HgN/A
3:30 PM86 °FScattered clouds.12 mph59%29.95 "HgN/A
3:00 PM86 °FScattered clouds.12 mph55%29.95 "HgN/A
2:30 PM86 °FScattered clouds.13 mph59%29.95 "HgN/A
2:00 PM84 °FBroken clouds.13 mph62%29.98 "HgN/A
1:30 PM86 °FScattered clouds.12 mph59%29.98 "HgN/A
1:04 PM86 °FPassing clouds.13 mph59%29.98 "HgN/A
12:41 PM86 °FPassing clouds.13 mph55%29.98 "HgN/A
12:00 PM86 °FPassing clouds.13 mph55%30.01 "HgN/A
11:30 AM86 °FPassing clouds.13 mph55%30.01 "HgN/A
11:00 AM86 °FPassing clouds.14 mph59%30.01 "HgN/A
10:30 AM86 °FPassing clouds.13 mph59%30.04 "HgN/A
10:00 AM86 °FPassing clouds.12 mph59%30.04 "HgN/A
9:30 AM84 °FScattered clouds.14 mph62%30.04 "HgN/A
9:00 AM86 °FScattered clouds.14 mph59%30.04 "HgN/A
8:30 AM84 °FScattered clouds.13 mph62%30.04 "HgN/A
8:00 AM84 °FScattered clouds.14 mph62%30.04 "HgN/A
7:00 AM82 °FScattered clouds.14 mph66%30.01 "HgN/A
6:30 AM82 °FPassing clouds.13 mph62%30.01 "HgN/A
6:00 AM82 °FPassing clouds.15 mph66%29.98 "HgN/A
Weather by CustomWeather, © 2015

See weather overviewHow to use our weather pages